[[{"header":{"parameterUnit":"m.s-1","parameterCategory":1,"la1":30.2991,"la2":30.254,"lo1":-89.0895,"lo2":-89.0444,"dy":0.0017,"dx":0.0017,"nx":28,"ny":28,"refTime":"2024-06-07T03:00:00:Z","depth":0,"parameterNumber":2,"parameterNumberName":"U-component_of_WINDS"},"data":[0,0,0,0,0,0,0,0,0,0,0,0,0,0,0,0,0,0,0,0,0,0,0,0,0,0,0,0,0,0,0,0,0,0,0,0,0,0,0,0,0,0,0,0,0,0,0,0,0,0,0,0,0,0,0,0,0,0,1.6674,1.6675,0,1.6752,1.6753,1.6754,1.6754,1.6753,1.6752,1.6751,1.6834,1.6837,1.684,0,0,0,0,0,0,0,0,0,0,0,0,0,1.6524,1.6527,1.6674,1.6675,1.6676,1.6752,1.6753,1.6754,1.6754,1.6753,1.6752,1.675,1.6833,1.6836,1.684,0,0,0,0,0,0,0,0,0,0,0,0,0,1.6595,1.6528,1.6673,1.6685,1.6686,1.6752,1.6753,1.6755,1.6754,1.6753,1.6751,1.675,1.6831,1.6836,1.6841,1.6901,0,0,1.6855,1.6857,0,0,0,0,0,0,0,0,1.6591,1.66,1.6682,1.6684,1.6686,1.6742,1.6731,1.6804,1.6755,1.6729,1.6751,1.6749,1.6804,1.6811,1.683,1.6905,1.6908,1.6856,1.6858,1.686,1.6862,0,0,0,0,0,0,0,1.6586,1.6597,1.6705,1.6683,1.6686,1.6686,1.6694,1.6745,1.6774,1.6731,1.6731,1.674,1.6805,1.6825,1.6831,1.691,1.6855,1.686,1.6863,1.6864,1.7037,1.7038,0,0,0,0,0,0,1.6578,1.6593,1.6702,1.6707,1.6634,1.669,1.6699,1.6725,1.6774,1.678,1.6741,1.674,1.6818,1.6826,1.6834,1.6907,1.686,1.6865,1.6868,1.7035,1.7037,1.7039,0,0,0,0,0,0,1.6575,1.6588,1.6699,1.665,1.6664,1.6694,1.6724,1.6728,1.6747,1.6782,1.6787,1.6756,1.6817,1.6828,1.6884,1.691,1.6867,1.6871,1.7033,1.7036,1.7038,1.7053,0,0,0,0,0,0,1.6571,1.6587,1.661,1.665,1.6667,1.6747,1.6725,1.673,1.6755,1.6754,1.6797,1.6803,1.6816,1.6877,1.6889,1.6916,1.6875,1.7031,1.7034,1.7037,1.7051,1.7056,1.7061,0,0,0,0,0,1.6566,1.6612,1.6611,1.6625,1.6696,1.6749,1.6758,1.6772,1.6758,1.6781,1.6803,1.6801,1.6905,1.6883,1.6896,1.6925,1.7029,1.7033,1.7037,1.7048,1.7055,1.7061,0,0,0,0,0,0,1.6575,1.6618,1.6617,1.6678,1.671,1.6748,1.6779,1.6779,1.6816,1.6814,1.683,1.684,1.6896,1.6916,1.689,1.6985,1.6965,1.6972,1.697,1.6976,1.6981,1.6975,1.6879,0,0,0,0,0,1.6584,1.6623,1.6658,1.6708,1.6724,1.6749,1.6772,1.678,1.6814,1.6827,1.6853,1.6886,1.6926,1.6953,1.6991,1.7054,1.7062,1.708,1.7085,1.7089,1.7095,1.7128,1.7136,1.7052,1.7052,1.7052,0,0,1.6604,1.6632,1.6655,1.6711,1.6736,1.6776,1.676,1.6803,1.6832,1.6834,1.6888,1.6908,1.6946,1.7005,1.7033,1.7024,1.712,1.7094,1.7097,1.71,1.7133,1.7141,1.7148,1.7054,1.7054,1.7053,0,0,1.6659,1.6684,1.6728,1.6754,1.6792,1.6807,1.6818,1.6857,1.687,1.6924,1.6925,1.6961,1.703,1.7057,1.7079,1.7143,1.7142,1.7155,1.7182,1.7214,1.7221,1.7226,1.7248,1.7256,1.7161,1.7161,1.7161,0,1.6679,1.6738,1.6751,1.6794,1.6818,1.682,1.6865,1.6889,1.6938,1.6955,1.6944,1.7029,1.7055,1.712,1.7135,1.7154,1.7166,1.715,1.7218,1.7225,1.723,1.7251,1.726,1.7162,1.7162,1.7162,1.7161,0,1.676,1.6801,1.6832,1.6878,1.6905,1.6949,1.6969,1.6995,1.7001,1.7017,1.7072,1.7103,1.7147,1.7163,1.717,1.7229,1.7222,1.7215,1.7195,1.7239,1.7259,1.7268,1.7164,1.7163,1.7163,1.7162,0,0,1.6824,1.6876,1.6887,1.6907,1.6948,1.6981,1.7024,1.7066,1.7088,1.7122,1.7158,1.7216,1.7209,1.7234,1.7243,1.7272,1.7319,1.7261,1.7262,1.727,1.7385,1.7389,1.7399,1.7319,1.732,1.7322,1.7381,0,1.6884,1.6959,1.6972,1.7039,1.7076,1.7078,1.7115,1.7145,1.7162,1.7196,1.7215,1.7255,1.7243,1.7258,1.7286,1.7307,1.7342,1.7303,1.7353,1.7354,1.7343,1.7409,1.7415,1.747,1.7389,1.7391,1.7392,0,1.6963,1.6997,1.7067,1.7102,1.7118,1.7152,1.7191,1.7224,1.7257,1.7267,1.7294,1.73,1.7345,1.7323,1.7385,1.7358,1.7379,1.7392,1.7395,1.74,1.7375,1.7415,1.7487,1.7495,1.7404,1.7403,1.7402,0,1.7002,1.7065,1.7115,1.7133,1.7175,1.7198,1.7217,1.7248,1.7273,1.7307,1.7323,1.7362,1.7384,1.7414,1.743,1.7413,1.7491,1.7471,1.75,1.75,1.7516,1.7515,1.7592,1.7531,1.753,1.753,1.753,0,1.7067,1.7109,1.7133,1.7163,1.7211,1.7225,1.7272,1.729,1.7318,1.7352,1.7356,1.7388,1.7408,1.7443,1.7456,1.7504,1.7514,1.7523,1.7526,1.7523,1.7521,1.7536,1.7533,1.7532,1.7532,1.7532,1.7531,0,1.7118,1.7136,1.719,1.7225,1.7234,1.7268,1.7298,1.7327,1.7343,1.7386,1.7397,1.7423,1.7464,1.7483,1.7534,1.7542,1.7597,1.7598,1.7586,1.7587,1.7615,1.7611,1.7704,1.7716,1.7647,1.7648,1.7648,0,1.7158,1.719,1.7228,1.7251,1.727,1.7306,1.7331,1.7345,1.737,1.741,1.7435,1.7476,1.7509,1.7575,1.7598,1.7637,1.7638,1.7668,1.7644,1.7639,1.7638,1.7635,1.7638,1.7672,1.7673,1.7673,1.7674,0,1.7226,1.7233,1.7267,1.7304,1.7333,1.7363,1.7393,1.7411,1.743,1.7458,1.75,1.7526,1.7577,1.7617,1.7658,1.7677,1.7679,1.7681,1.7689,1.7686,1.7677,1.7681,1.7597,1.7679,1.7678,1.7678,1.7678,1.7677,1.7273,1.7301,1.7332,1.7369,1.7393,1.742,1.7449,1.7468,1.7502,1.7544,1.7551,1.7595,1.7627,1.7681,1.7702,1.7736,1.7729,1.7742,1.7745,1.7748,1.7749,1.7672,1.7744,1.7744,1.7744,1.7743,1.7743,0,1.7341,1.736,1.7394,1.7435,1.7464,1.7462,1.7494,1.7519,1.7557,1.7586,1.7618,1.7666,1.7704,1.773,1.7769,1.7792,1.7794,1.7802,1.78,1.7805,1.7754,1.7742,1.78,1.78,1.78,1.78,1.78,1.78,1.7379,1.7427,1.7437,1.7496,1.7515,1.7557,1.7575,1.76,1.7623,1.7675,1.7707,1.7723,1.7751,1.7792,1.7827,1.7834,1.7848,1.7856,1.7863,1.7814,1.7808,1.7803,1.7792,1.7859,1.7859,1.7911,1.7911,1.7911]},{"header":{"parameterUnit":"m.s-1","parameterCategory":1,"la1":30.2991,"la2":30.254,"lo1":-89.0895,"lo2":-89.0444,"dy":0.0017,"dx":0.0017,"nx":28,"ny":28,"refTime":"2024-06-07T03:00:00:Z","depth":0,"parameterNumber":3,"parameterNumberName":"V-component_of_WINDS"},"data":[0,0,0,0,0,0,0,0,0,0,0,0,0,0,0,0,0,0,0,0,0,0,0,0,0,0,0,0,0,0,0,0,0,0,0,0,0,0,0,0,0,0,0,0,0,0,0,0,0,0,0,0,0,0,0,0,0,0,1.4426,1.4427,0,1.4483,1.4484,1.4485,1.4488,1.4487,1.4486,1.4486,1.4543,1.4545,1.4547,0,0,0,0,0,0,0,0,0,0,0,0,0,1.4317,1.4319,1.4426,1.4427,1.4427,1.4483,1.4484,1.4485,1.4488,1.4487,1.4486,1.4485,1.4542,1.4545,1.4548,0,0,0,0,0,0,0,0,0,0,0,0,0,1.4369,1.432,1.4426,1.4435,1.4437,1.4483,1.4484,1.4485,1.4488,1.4487,1.4486,1.4485,1.4542,1.4545,1.4548,1.4588,0,0,1.4558,1.4559,0,0,0,0,0,0,0,0,1.4366,1.4373,1.4433,1.4435,1.4437,1.4477,1.4467,1.4519,1.4488,1.4468,1.4486,1.4484,1.4522,1.4527,1.454,1.4591,1.4593,1.4558,1.456,1.4561,1.4562,0,0,0,0,0,0,0,1.4362,1.437,1.4449,1.4434,1.4436,1.4437,1.4443,1.4477,1.45,1.447,1.447,1.4477,1.4523,1.4537,1.4541,1.4594,1.4558,1.4561,1.4563,1.4564,1.4681,1.4682,0,0,0,0,0,0,1.4357,1.4367,1.4447,1.445,1.4398,1.4439,1.4446,1.4465,1.45,1.4504,1.4478,1.4477,1.4531,1.4537,1.4543,1.4592,1.4561,1.4564,1.4566,1.468,1.4681,1.4682,0,0,0,0,0,0,1.4355,1.4364,1.4444,1.4409,1.4419,1.4442,1.4464,1.4467,1.4481,1.4506,1.451,1.4488,1.4531,1.4538,1.4577,1.4594,1.4566,1.4569,1.4678,1.468,1.4682,1.4691,0,0,0,0,0,0,1.4351,1.4363,1.4379,1.4409,1.4421,1.4478,1.4465,1.4469,1.4487,1.4486,1.4516,1.452,1.4531,1.4572,1.458,1.4598,1.4571,1.4677,1.4679,1.4681,1.4689,1.4693,1.4696,0,0,0,0,0,1.4348,1.4379,1.438,1.4389,1.4441,1.4479,1.4485,1.4497,1.4488,1.4504,1.452,1.4519,1.4591,1.4576,1.4585,1.4605,1.4676,1.4678,1.4681,1.4688,1.4692,1.4696,0,0,0,0,0,0,1.4349,1.4383,1.4384,1.4426,1.445,1.4479,1.4499,1.4501,1.4528,1.4526,1.4539,1.4546,1.4584,1.4598,1.458,1.4645,1.4632,1.4637,1.4635,1.4639,1.4642,1.4638,1.4574,0,0,0,0,0,1.4355,1.4383,1.441,1.4445,1.4457,1.4476,1.4493,1.45,1.4524,1.4534,1.4553,1.4576,1.4604,1.4622,1.4649,1.4691,1.4698,1.4709,1.4713,1.4715,1.4719,1.4743,1.4748,1.4691,1.4691,1.4691,0,0,1.4366,1.4388,1.4405,1.4446,1.4465,1.4493,1.4484,1.4515,1.4536,1.4539,1.4576,1.4591,1.4618,1.4658,1.4677,1.4671,1.4737,1.4719,1.4721,1.4723,1.4746,1.4751,1.4756,1.4693,1.4692,1.4692,0,0,1.4401,1.442,1.4452,1.4471,1.45,1.4513,1.452,1.4549,1.4559,1.4597,1.46,1.4625,1.4673,1.4692,1.4708,1.4751,1.4752,1.4759,1.4777,1.48,1.4804,1.4808,1.4824,1.4829,1.4763,1.4763,1.4763,0,1.4411,1.4455,1.4467,1.4498,1.4516,1.452,1.4552,1.457,1.4606,1.4618,1.4611,1.4671,1.469,1.4735,1.4745,1.4758,1.4767,1.4756,1.4803,1.4807,1.4811,1.4826,1.4831,1.4764,1.4764,1.4764,1.4764,0,1.4466,1.4496,1.4517,1.4553,1.4573,1.4604,1.4621,1.464,1.4645,1.4659,1.4698,1.472,1.4752,1.4763,1.4768,1.4809,1.4805,1.48,1.4787,1.4817,1.4831,1.4837,1.4765,1.4765,1.4764,1.4764,0,0,1.4504,1.4546,1.4554,1.457,1.4602,1.4626,1.4656,1.4688,1.4704,1.4729,1.4755,1.4796,1.4792,1.481,1.4818,1.4838,1.487,1.4831,1.4832,1.4838,1.4917,1.492,1.4927,1.4871,1.4872,1.4873,1.4915,0,1.4542,1.4598,1.461,1.4658,1.4686,1.4691,1.4718,1.4741,1.4754,1.4779,1.4794,1.4822,1.4815,1.4826,1.4846,1.4862,1.4887,1.4859,1.4895,1.4897,1.4889,1.4934,1.4938,1.4976,1.492,1.4921,1.4922,0,1.4595,1.4622,1.4673,1.4702,1.4714,1.4738,1.4768,1.4792,1.4818,1.4827,1.4847,1.4853,1.4885,1.4871,1.4915,1.4896,1.4912,1.4922,1.4924,1.4927,1.4911,1.4939,1.4988,1.4994,1.4931,1.493,1.4929,0,1.4618,1.4666,1.4703,1.4717,1.4752,1.4769,1.4784,1.4809,1.4827,1.4853,1.4865,1.4894,1.4911,1.4933,1.4946,1.4935,1.499,1.4976,1.4997,1.4997,1.5009,1.5008,1.5061,1.5018,1.5018,1.5018,1.5018,0,1.466,1.4691,1.4714,1.4737,1.4771,1.4785,1.4819,1.4834,1.4856,1.4882,1.4887,1.4911,1.4927,1.4953,1.4963,1.4999,1.5006,1.5013,1.5016,1.5013,1.5012,1.5023,1.5021,1.502,1.5019,1.5019,1.5019,0,1.4691,1.4708,1.4748,1.4778,1.4786,1.4811,1.4836,1.4858,1.4872,1.4904,1.4912,1.4933,1.4964,1.498,1.5018,1.5025,1.5065,1.5065,1.5056,1.5057,1.5077,1.5075,1.514,1.5149,1.51,1.51,1.5101,0,1.4717,1.4741,1.4773,1.4791,1.4807,1.4835,1.4854,1.4869,1.4888,1.4919,1.4938,1.4969,1.4995,1.5044,1.5062,1.5091,1.5093,1.5114,1.5097,1.5094,1.5093,1.5092,1.5094,1.5116,1.5117,1.5117,1.5117,0,1.4761,1.4768,1.4795,1.4826,1.4848,1.4873,1.4897,1.4911,1.4929,1.4951,1.4982,1.5002,1.5042,1.5073,1.5103,1.5119,1.5121,1.5123,1.5129,1.5126,1.512,1.5124,1.5064,1.5121,1.5121,1.512,1.512,1.512,1.479,1.4812,1.4838,1.4869,1.4888,1.4911,1.4933,1.495,1.4977,1.501,1.5017,1.5051,1.5076,1.5118,1.5134,1.5161,1.5156,1.5165,1.5168,1.517,1.5171,1.5116,1.5166,1.5166,1.5166,1.5166,1.5166,0,1.4834,1.4852,1.488,1.4914,1.4937,1.4938,1.4965,1.4985,1.5015,1.5038,1.5064,1.5101,1.5131,1.5152,1.5182,1.52,1.5201,1.5207,1.5206,1.5209,1.5173,1.5165,1.5205,1.5205,1.5205,1.5205,1.5205,1.5205,1.486,1.4897,1.4908,1.4954,1.4972,1.5005,1.502,1.5041,1.506,1.5101,1.5127,1.514,1.5163,1.5195,1.5223,1.5228,1.5239,1.5245,1.525,1.5216,1.5212,1.5208,1.52,1.5247,1.5247,1.5285,1.5285,1.5285]}]]